Mount Holly, NJ

10:41 PM EST on November 20, 2017 (GMT -0500)
South Jersey Regional

Weather History for KVAY - March, 2014

Change the Weather History Date:

Saturday, March 29, 2014

  Actual Average (KPNE) Record (KPNE)
Temperature  
Mean Temperature 49 °F -  
Max Temperature 53 °F 55 °F 82 °F (1998)
Min Temperature 44 °F 37 °F 26 °F (2015)
Degree Days  
Heating Degree Days 16    
Moisture  
Dew Point 45 °F    
Average Humidity 92    
Maximum Humidity 97    
Minimum Humidity 77    
Precipitation  
Precipitation 2.07 in - - ()
Sea Level Pressure  
Sea Level Pressure 29.94 in    
Wind  
Wind Speed 6 mph (ENE)    
Max Wind Speed 13 mph    
Max Gust Speed 23 mph    
Visibility 4 miles    
Events Rain    
Averages and records for this station are not official NWS values.
T = Trace of Precipitation, MM = Missing Value Source: NWS Daily Summary

Daily Weather History Graph

Daily Weather History Graph

Search for Another Location

Airport or City:

Trip Planner

Search our weather history database for the weather conditions in past years. The results will help you decide how hot, cold, wet, or windy it might be!

Date:

Astronomy

Mar. 29, 2014 Rise Set
Actual Time 6:48 AM EDT 7:20 PM EDT
Civil Twilight 6:21 AM EDT 7:47 PM EDT
Nautical Twilight 5:49 AM EDT 8:19 PM EDT
Astronomical Twilight 5:16 AM EDT 8:52 PM EDT
Moon 5:55 AM EDT (3/29) 6:22 PM EDT (3/29)
Length of Visible Light 13h 26m
Length of Day
12h 32m
Waning Crescent, 2% of the Moon is Illuminated
Mar 29
Waning Crescent
Mar 30
New
Apr 7
First Quarter
Apr 15
Full
Apr 22
Last Quarter

Hourly Weather History & Observations

Time (EDT) Temp. Windchill Dew Point Humidity Pressure Visibility Wind Dir Wind Speed Gust Speed Precip Events Conditions
12:54 AM 54.0 °F - 46.9 °F 77% 30.11 in 10.0 mi SW 3.5 mph - N/A   Scattered Clouds
1:54 AM 48.9 °F - 45.0 °F 86% 30.11 in 10.0 mi South 3.5 mph - N/A   Clear
2:54 AM 46.0 °F - 44.1 °F 93% 30.11 in 8.0 mi Calm Calm - N/A   Clear
3:54 AM 46.0 °F - 44.1 °F 93% 30.09 in 7.0 mi Calm Calm - N/A   Clear
4:54 AM 46.9 °F - 45.0 °F 93% 30.10 in 6.0 mi Calm Calm - N/A   Mostly Cloudy
5:40 AM 46.9 °F - 45.0 °F 93% 30.10 in 7.0 mi Calm Calm - N/A   Overcast
5:54 AM 48.0 °F - 45.0 °F 89% 30.11 in 7.0 mi North 3.5 mph - N/A   Overcast
6:54 AM 52.0 °F - 46.0 °F 80% 30.13 in 9.0 mi NNE 8.1 mph - N/A   Overcast
7:54 AM 52.0 °F - 45.0 °F 77% 30.14 in 7.0 mi ENE 9.2 mph - N/A   Overcast
8:06 AM 52.0 °F - 45.0 °F 77% 30.14 in 8.0 mi ENE 4.6 mph - N/A   Overcast
8:54 AM 50.0 °F - 45.0 °F 83% 30.13 in 5.0 mi East 5.8 mph - 0.02 in Rain Light Rain
9:11 AM 50.0 °F - 45.0 °F 83% 30.14 in 5.0 mi ENE 4.6 mph - 0.00 in Rain Light Rain
9:54 AM 48.9 °F - 46.0 °F 90% 30.14 in 2.5 mi ENE 8.1 mph - 0.03 in Rain Light Rain
10:33 AM 48.9 °F - 46.0 °F 90% 30.13 in 2.5 mi ENE 9.2 mph - 0.06 in Rain Light Rain
10:54 AM 48.9 °F - 46.0 °F 90% 30.13 in 2.0 mi ENE 8.1 mph - 0.09 in Rain Rain
11:09 AM 48.9 °F - 46.0 °F 90% 30.12 in 1.8 mi East 8.1 mph - 0.03 in Rain Rain
11:22 AM 48.9 °F - 46.0 °F 90% 30.11 in 2.0 mi ENE 11.5 mph - 0.05 in Rain Light Rain
11:54 AM 48.9 °F - 46.0 °F 90% 30.10 in 2.0 mi East 11.5 mph 23.0 mph 0.09 in Rain Light Rain
12:18 PM 48.0 °F - 46.0 °F 93% 30.09 in 1.5 mi East 12.7 mph 21.9 mph 0.05 in Rain Rain
12:31 PM 48.0 °F - 46.0 °F 93% 30.08 in 2.0 mi East 11.5 mph - 0.07 in Rain Rain
12:54 PM 46.9 °F - 44.1 °F 90% 30.08 in 2.0 mi East 12.7 mph 23.0 mph 0.13 in Rain Rain
1:03 PM 46.9 °F - 45.0 °F 93% 30.08 in 1.8 mi East 11.5 mph 20.7 mph 0.03 in Rain Rain
1:12 PM 46.9 °F - 45.0 °F 93% 30.08 in 2.0 mi East 9.2 mph - 0.06 in Rain Rain
1:32 PM 46.9 °F - 45.0 °F 93% 30.06 in 2.0 mi ENE 11.5 mph - 0.11 in Rain Rain
1:40 PM 46.9 °F - 45.0 °F 93% 30.06 in 1.5 mi East 9.2 mph - 0.13 in Rain Rain
1:54 PM 46.9 °F - 45.0 °F 93% 30.04 in 1.2 mi East 9.2 mph - 0.21 in Rain Heavy Rain
2:14 PM 46.9 °F - 45.0 °F 93% 30.02 in 3.0 mi East 12.7 mph - 0.07 in Rain Rain
2:54 PM 48.0 °F - 45.0 °F 89% 29.98 in 4.0 mi ENE 9.2 mph - 0.11 in Rain Light Rain
3:54 PM 46.9 °F - 45.0 °F 93% 29.94 in 3.0 mi ENE 11.5 mph - 0.06 in Rain Light Rain
4:54 PM 46.9 °F - 45.0 °F 93% 29.91 in 3.0 mi ENE 8.1 mph - 0.06 in Rain Light Rain
5:08 PM 46.9 °F - 45.0 °F 93% 29.90 in 4.0 mi ENE 8.1 mph - 0.01 in Rain Light Rain
5:19 PM 46.9 °F - 45.0 °F 93% 29.90 in 5.0 mi ENE 9.2 mph - 0.03 in Rain Light Rain
5:42 PM 46.9 °F - 45.0 °F 93% 29.89 in 9.0 mi ENE 8.1 mph - 0.04 in Rain Light Rain
5:54 PM 46.0 °F 40.6 °F 45.0 °F 96% 29.88 in 6.0 mi ENE 11.5 mph - 0.05 in Rain Light Rain
6:15 PM 46.0 °F 41.0 °F 44.1 °F 93% 29.88 in 7.0 mi ENE 10.4 mph - 0.01 in Rain Light Rain
6:54 PM 46.0 °F 41.9 °F 44.1 °F 93% 29.85 in 6.0 mi ENE 8.1 mph - 0.04 in Rain Light Rain
7:13 PM 45.0 °F 41.2 °F 44.1 °F 97% 29.84 in 5.0 mi ENE 6.9 mph - 0.04 in Rain Light Rain
7:54 PM 45.0 °F 40.6 °F 43.0 °F 93% 29.81 in 3.0 mi ENE 8.1 mph - 0.12 in Rain Rain
8:02 PM 45.0 °F 41.8 °F 44.1 °F 97% 29.81 in 2.0 mi ENE 5.8 mph - 0.04 in Rain Rain
8:08 PM 45.0 °F 42.6 °F 44.1 °F 97% 29.81 in 1.8 mi ENE 4.6 mph - 0.08 in Rain Heavy Rain
8:29 PM 45.0 °F 40.6 °F 43.0 °F 93% 29.80 in 2.5 mi ENE 8.1 mph - 0.21 in Rain Heavy Rain
8:51 PM 44.6 °F 40.7 °F 42.8 °F 93% 29.79 in 1.5 mi ENE 6.9 mph - 0.38 in Rain Heavy Rain
8:54 PM 45.0 °F 41.8 °F 43.0 °F 93% 29.78 in 1.5 mi NE 5.8 mph - 0.42 in Rain Heavy Rain
9:11 PM 44.1 °F 40.1 °F 43.0 °F 96% 29.77 in 1.0 mi NE 6.9 mph - 0.20 in Rain Heavy Rain
9:18 PM 44.1 °F 40.1 °F 43.0 °F 96% 29.76 in 1.5 mi ENE 6.9 mph - 0.22 in Rain Rain
9:30 PM 45.0 °F 41.2 °F 43.0 °F 93% 29.74 in 3.0 mi NE 6.9 mph - 0.23 in Rain Light Rain
9:47 PM 44.1 °F 40.1 °F 43.0 °F 96% 29.72 in 1.8 mi NE 6.9 mph - 0.28 in Rain Heavy Rain
9:54 PM 44.1 °F 40.1 °F 43.0 °F 96% 29.72 in 1.8 mi NNE 6.9 mph - 0.32 in Rain Heavy Rain
10:01 PM 44.1 °F 40.1 °F 43.0 °F 96% 29.72 in 2.5 mi NE 6.9 mph - 0.01 in Rain Light Rain
10:52 PM 44.6 °F 40.2 °F 42.8 °F 93% 29.66 in 1.2 mi NE 8.1 mph - 0.12 in Rain Heavy Rain
10:54 PM 45.0 °F 40.6 °F 43.0 °F 93% 29.65 in 1.2 mi ENE 8.1 mph - 0.13 in Rain Heavy Rain
11:04 PM 45.0 °F 40.1 °F 44.1 °F 97% 29.64 in 3.0 mi NE 9.2 mph - 0.02 in Rain Light Rain
11:13 PM 45.0 °F 39.7 °F 44.1 °F 97% 29.63 in 1.8 mi NE 10.4 mph - 0.11 in Rain Heavy Rain
11:27 PM 45.0 °F 41.8 °F 44.1 °F 97% 29.63 in 3.0 mi NE 5.8 mph - 0.15 in Rain Light Rain
11:46 PM 46.0 °F 43.9 °F 44.1 °F 93% 29.63 in 2.0 mi West 4.6 mph - 0.18 in Rain Light Rain
11:54 PM 45.0 °F 43.5 °F 44.1 °F 97% 29.63 in 2.0 mi Variable 3.5 mph - 0.19 in Rain Light Rain